Retour au catalogue

KUIPER-00258

ActifCommunicationsVLEO
NORAD 69763·PAYLOAD·🇺🇸 United States

Lancé Jul 2, 2026 depuis Cape Canaveral Space Force Station

Loading…

Prochains Passages (prochaines 24 heures)

TLE

FraisSource: CelesTrak SupGP

Époque: Sep 14, 2026, 16:22 UTC

1 69763C 26151A   26257.68236111 -.00995840  00000+0 -67472-1 0  2576
2 69763  51.8843 246.2582 0010659  33.3000 245.5259 15.06904211    13

Suivez KUIPER-00258 en temps réel avec AllMySat

Download on the App Store